YAOGAN 2 DEB

Satellite information

Favourite Embed

Satellite Type and Status

DEBRISIN ORBIT

Key statistics

Satellite YAOGAN 2 DEB at a glance.

Uptime

6679

Days in orbit

Revolutions

≈ 14.5

Per day

Orbit

SSO

Sun Synchronous Orbit

Inclination

97.8

Latest

Satellite identification and parameters

Extended collection of information and parameters for YAOGAN 2 DEB.

Object identification

Identified? True

Debris? True

Object name: YAOGAN 2 DEB

International designator: 2007-019B

Object number (NORAD): 38262

Object ID (CCSDS): 38262

Country: PEOPLES REPUBLIC OF CHINA (PRC)

Current information (Y/N): Y

RCS size: SMALL

Orbital parameters

Period: 99.46 minutes

Inclination: 97.8386 deg

SMA: 7110.923 km

Apoapsis: 843.174 km

Periapsis: 622.402 km

RAAN: 172.7404 deg

Eccentricy: 0.01552345

Argument of periapsis: 138.9085 deg

Mean anomaly: 12.1979 deg

Mean motion: 14.47817336 rev/day

Mean motion (dot): 0.00003946 rev/day2

B* drag term: 0.00092629314 1/REarth

Two-line elements (TLE)

Creation date: Sept. 4, 2025, 10:13 a.m.

Reference frame: TEME

Reference center: EARTH

Epoch: Sept. 4, 2025, 6:51 a.m. UTC

TLE line 0: 0 YAOGAN 2 DEB

TLE line 1: 1 38262U 07019B 25247.28591270 .00003946 00000-0 92629-3 0 9995

TLE line 2: 2 38262 97.8386 172.7404 0155234 138.9085 12.1979 14.47817336930053

Live tracking on map

Real-time ground track for satellite YAOGAN 2 DEB.

In-orbit conjunctions

A list of the most updated potential collisions computed for object YAOGAN 2 DEB.

Target Orbit TCA Probability of collision Miss distance Type
CZ-2C DEB SSO 2025-05-15 11:12:25 0.0001574055 244.0 (m) DEBRIS
SL-16 R/B LEO 2025-02-20 08:42:51 0.001054412 259.0 (m) ROCKET BODY

Associated space launch

Chinese Earth observation satellite likely also used for military reconnaissance

YAOGAN 2 DEB was lifted into orbit during the mission ‘Long March 2D | Yaogan Weixing 2’, on board a Long March 2D space rocket.

The launch took place on May 25, 2007, 7:12 a.m. from Launch Area 4 (SLS-2 / 603).

For more information about the launch, click the button.

Launch to space Long March 2D | Yaogan Weixing 2
Long March 2D | Yaogan Weixing 2

Agency: N/A

Status: Launch Successful

Launch date: May 25, 2007, 7:12 a.m. UTC

Rocket: Long March 2D

Launch pad: Launch Area 4 (SLS-2 / 603)

Location: Jiuquan Satellite Launch Center, People's Republic of China

...

Latest news about this satellite

There are no fresh news available about this satellite. Check back as we update our databases every day.


Newsletter sign-up

Weekly statistics, charts and insights to help you stay on top of the space industry.